Погода в Нижнетроицком

Россия / Республика Башкортостан     54°20′22″N   53°41′14″E
темп.,
°C
ветер,
м/с
пор.,
м/с
влажн.,
%
обл.,
%
осадки,
мм/ч
давл.,
гПа
погр.,
м
11 мая, вт
вт1123:00+17в335323 0.0 102135
02:00+15в22565 0.0 102114
05:00+14юв115971 0.0 102311
08:00+17юв115312 0.0 102489
11:00+21ююз214235 0.0 1025943
14:00+24юз223544 0.0 10252360
17:00+21зюз3547100 0.0 1025274
20:00+19ююв225794 0.0 102649
12 мая, ср
ср1223:00+18в1154100 0.0 102711
02:00+16вюв2259100 0.0 102712
05:00+14вюв116390 0.0 102811
08:00+17в235463 0.0 1028133
11:00+21вюв453640 0.0 10281008
14:00+23юв343360 0.0 10282126
17:00+23ююв343330 0.0 10281939
20:00+20ююв34456 0.0 102875
13 мая, чт
чт1323:00+16юв22517 0.0 102812
02:00+14юв225399 0.0 102812
05:00+13вюв2255100 0.0 102812
08:00+16вюв135336 0.0 1029114
11:00+22ююв463627 0.0 10281093
14:00+24ююв453078 0.0 10281694
17:00+25ююв442954 0.0 10271720
20:00+22ююв22455 0.0 102641
14 мая, пт
пт1423:00+17ююв22470 0.0 102715
02:00+16ююв224830 0.0 102725
05:00+15ююв225299 0.0 102725
08:00+18ююв2754100 0.0 1027200
11:00+23ю56376 0.0 1027687
14:00+26ююз462964 0.0 10261925
17:00+26ююз462886 0.0 10252012
20:00+23ююз234510 0.0 102544
15 мая, сб
сб1523:00+19ю22481 0.0 102513
02:00+17ю22515 0.0 102512
05:00+16ю22555 0.0 102513
08:00+19ю24517 0.0 1025125
11:00+25ююз45365 0.0 1024685
14:00+27юз45275 0.0 10232132
17:00+27юз442754 0.0 10222203
20:00+24юз2243100 0.0 102111